• In Russia
  • List of Countries
  • For 7 days
  • Water Temperature
  • Satellite Maps
  • Weather Map
  • Weather Widgets
  • user-avatar
    Login

    Hourly Weather Sidi Bu-l-Abbas

    Today, 23 October, Monday

    Time Temperature Precipitation Wind Pressure Humidity
    00:00 +20°C° 0 mm 1 mps 725 mmHg 69%
    01:00 +19°C° 0 mm 1 mps 725 mmHg 70%
    02:00 +19°C° 0 mm 1 mps 725 mmHg 70%
    03:00 +19°C° 0 mm 1 mps 725 mmHg 71%
    04:00 +19°C° 0 mm 1 mps 725 mmHg 72%
    05:00 +18°C° 0 mm 1 mps 725 mmHg 72%
    06:00 +18°C° 0 mm 1 mps 725 mmHg 73%
    07:00 +19°C° 0 mm 1 mps 725 mmHg 67%
    08:00 +21°C° 0 mm 1 mps 725 mmHg 60%
    09:00 +21°C° 0 mm 2 mps 726 mmHg 54%
    10:00 +23°C° 0 mm 2 mps 726 mmHg 50%
    11:00 +24°C° 0 mm 2 mps 726 mmHg 45%
    12:00 +25°C° 0 mm 3 mps 726 mmHg 40%
    13:00 +25°C° 0 mm 3 mps 726 mmHg 40%
    14:00 +25°C° 0 mm 4 mps 725 mmHg 39%
    15:00 +26°C° 0 mm 4 mps 725 mmHg 38%
    16:00 +25°C° 0 mm 4 mps 725 mmHg 43%
    17:00 +23°C° 0 mm 4 mps 725 mmHg 48%
    18:00 +22°C° 0 mm 4 mps 725 mmHg 52%
    19:00 +21°C° 0 mm 3 mps 725 mmHg 56%
    20:00 +20°C° 0 mm 3 mps 725 mmHg 60%
    21:00 +20°C° 0 mm 2 mps 725 mmHg 64%
    22:00 +19°C° 0 mm 2 mps 725 mmHg 67%
    23:00 +19°C° 0 mm 2 mps 725 mmHg 69%

    Tomorrow, 24 October, Tuesday

    Time Temperature Precipitation Wind Pressure Humidity
    00:00 +18°C° 0 mm 2 mps 725 mmHg 71%
    01:00 +19°C° 0 mm 1 mps 725 mmHg 72%
    02:00 +19°C° 0 mm 1 mps 725 mmHg 73%
    03:00 +18°C° 0 mm 1 mps 725 mmHg 75%
    04:00 +18°C° 0 mm 1 mps 725 mmHg 75%
    05:00 +18°C° 0 mm 1 mps 725 mmHg 75%
    06:00 +16°C° 0 mm 1 mps 725 mmHg 76%
    07:00 +19°C° 0 mm 1 mps 725 mmHg 69%
    08:00 +20°C° 0 mm 1 mps 726 mmHg 61%
    09:00 +22°C° 0 mm 1 mps 726 mmHg 54%
    10:00 +23°C° 0 mm 2 mps 726 mmHg 47%
    11:00 +24°C° 0 mm 2 mps 726 mmHg 41%
    12:00 +25°C° 0 mm 2 mps 726 mmHg 34%
    13:00 +26°C° 0 mm 3 mps 726 mmHg 33%
    14:00 +26°C° 0 mm 3 mps 725 mmHg 32%
    15:00 +26°C° 0 mm 4 mps 725 mmHg 31%
    16:00 +25°C° 0 mm 3 mps 725 mmHg 35%
    17:00 +24°C° 0 mm 3 mps 725 mmHg 40%
    18:00 +22°C° 0 mm 3 mps 725 mmHg 44%
    19:00 +21°C° 0 mm 2 mps 725 mmHg 48%
    20:00 +21°C° 0 mm 2 mps 725 mmHg 52%
    21:00 +21°C° 0 mm 1 mps 726 mmHg 55%
    22:00 +21°C° 0 mm 1 mps 726 mmHg 56%
    23:00 +20°C° 0 mm 1 mps 725 mmHg 57%

    Day after tomorrow, 25 October, Wednesday

    Time Temperature Precipitation Wind Pressure Humidity
    00:00 +20°C° 0 mm 1 mps 725 mmHg 57%
    01:00 +19°C° 0 mm 1 mps 725 mmHg 57%
    02:00 +19°C° 0 mm 1 mps 725 mmHg 57%
    03:00 +19°C° 0 mm 1 mps 725 mmHg 56%
    04:00 +19°C° 0 mm 1 mps 725 mmHg 56%
    05:00 +18°C° 0 mm 1 mps 725 mmHg 56%
    06:00 +18°C° 0 mm 1 mps 725 mmHg 55%
    07:00 +20°C° 0 mm 1 mps 725 mmHg 49%
    08:00 +22°C° 0 mm 1 mps 726 mmHg 42%
    09:00 +24°C° 0 mm 1 mps 726 mmHg 36%
    10:00 +25°C° 0 mm 1 mps 726 mmHg 32%
    11:00 +26°C° 0 mm 1 mps 726 mmHg 29%
    12:00 +27°C° 0 mm 1 mps 726 mmHg 26%
    13:00 +27°C° 0 mm 2 mps 726 mmHg 25%
    14:00 +28°C° 0 mm 2 mps 726 mmHg 25%
    15:00 +28°C° 0 mm 3 mps 726 mmHg 24%
    16:00 +27°C° 0 mm 3 mps 726 mmHg 28%
    17:00 +26°C° 0 mm 3 mps 726 mmHg 32%
    18:00 +24°C° 0 mm 3 mps 726 mmHg 36%
    19:00 +24°C° 0 mm 2 mps 726 mmHg 39%
    20:00 +23°C° 0 mm 2 mps 726 mmHg 41%
    21:00 +22°C° 0 mm 1 mps 727 mmHg 44%
    22:00 +22°C° 0 mm 1 mps 727 mmHg 44%
    23:00 +21°C° 0 mm 1 mps 726 mmHg 44%

    26 October, Thursday

    Time Temperature Precipitation Wind Pressure Humidity
    00:00 +21°C° 0 mm 1 mps 726 mmHg 44%
    01:00 +21°C° 0 mm 1 mps 726 mmHg 43%
    02:00 +20°C° 0 mm 1 mps 726 mmHg 42%
    03:00 +20°C° 0 mm 1 mps 726 mmHg 41%
    04:00 +20°C° 0 mm 1 mps 726 mmHg 41%
    05:00 +20°C° 0 mm 1 mps 726 mmHg 41%
    06:00 +18°C° 0 mm 2 mps 726 mmHg 40%
    07:00 +20°C° 0 mm 2 mps 727 mmHg 36%
    08:00 +23°C° 0 mm 2 mps 727 mmHg 31%
    09:00 +25°C° 0 mm 2 mps 728 mmHg 26%
    10:00 +26°C° 0 mm 2 mps 728 mmHg 24%
    11:00 +27°C° 0 mm 2 mps 728 mmHg 22%
    12:00 +29°C° 0 mm 2 mps 728 mmHg 20%
    13:00 +29°C° 0 mm 2 mps 727 mmHg 20%
    14:00 +29°C° 0 mm 3 mps 727 mmHg 20%
    15:00 +29°C° 0 mm 3 mps 727 mmHg 20%
    16:00 +28°C° 0 mm 3 mps 726 mmHg 26%
    17:00 +26°C° 0 mm 3 mps 726 mmHg 32%
    18:00 +25°C° 0 mm 2 mps 726 mmHg 38%
    19:00 +24°C° 0 mm 2 mps 727 mmHg 41%
    20:00 +23°C° 0 mm 2 mps 727 mmHg 43%
    21:00 +21°C° 0 mm 2 mps 727 mmHg 46%
    22:00 +21°C° 0 mm 2 mps 727 mmHg 46%
    23:00 +21°C° 0 mm 2 mps 727 mmHg 45%

    27 October, Friday

    Time Temperature Precipitation Wind Pressure Humidity
    00:00 +21°C° 0 mm 2 mps 727 mmHg 45%
    01:00 +20°C° 0 mm 2 mps 727 mmHg 44%
    02:00 +20°C° 0 mm 2 mps 727 mmHg 44%
    03:00 +19°C° 0 mm 2 mps 726 mmHg 44%
    04:00 +19°C° 0 mm 2 mps 726 mmHg 44%
    05:00 +19°C° 0 mm 2 mps 727 mmHg 44%
    06:00 +19°C° 0 mm 2 mps 727 mmHg 44%
    07:00 +20°C° 0 mm 2 mps 727 mmHg 39%
    08:00 +23°C° 0 mm 2 mps 728 mmHg 35%
    09:00 +25°C° 0 mm 2 mps 728 mmHg 30%
    10:00 +26°C° 0 mm 2 mps 728 mmHg 28%
    11:00 +27°C° 0 mm 2 mps 728 mmHg 26%
    12:00 +28°C° 0 mm 2 mps 728 mmHg 24%
    13:00 +28°C° 0 mm 2 mps 727 mmHg 26%
    14:00 +28°C° 0 mm 2 mps 727 mmHg 27%
    15:00 +28°C° 0 mm 3 mps 727 mmHg 29%
    16:00 +27°C° 0 mm 2 mps 726 mmHg 35%
    17:00 +25°C° 0 mm 2 mps 726 mmHg 42%
    18:00 +24°C° 0 mm 2 mps 726 mmHg 48%
    19:00 +23°C° 0 mm 2 mps 726 mmHg 52%
    20:00 +22°C° 0 mm 1 mps 726 mmHg 57%
    21:00 +22°C° 0 mm 1 mps 726 mmHg 61%
    22:00 +21°C° 0 mm 1 mps 726 mmHg 63%
    23:00 +19°C° 0 mm 0 mps 726 mmHg 64%

    28 October, Saturday

    Time Temperature Precipitation Wind Pressure Humidity
    00:00 +18°C° 0 mm 0 mps 725 mmHg 66%
    01:00 +18°C° 0 mm 0 mps 725 mmHg 68%
    02:00 +17°C° 0 mm 0 mps 724 mmHg 69%
    03:00 +17°C° 0 mm 0 mps 724 mmHg 71%
    04:00 +16°C° 0 mm 0 mps 724 mmHg 71%
    05:00 +16°C° 0 mm 0 mps 724 mmHg 72%
    06:00 +16°C° 0 mm 0 mps 724 mmHg 73%
    07:00 +17°C° 0 mm 0 mps 724 mmHg 65%
    08:00 +19°C° 0 mm 0 mps 724 mmHg 58%
    09:00 +21°C° 0 mm 0 mps 725 mmHg 51%
    10:00 +24°C° 0 mm 1 mps 725 mmHg 45%
    11:00 +25°C° 0 mm 1 mps 724 mmHg 40%
    12:00 +26°C° 0 mm 2 mps 724 mmHg 35%
    13:00 +26°C° 0 mm 2 mps 724 mmHg 35%
    14:00 +26°C° 0 mm 3 mps 724 mmHg 35%
    15:00 +26°C° 0 mm 3 mps 723 mmHg 35%
    16:00 +25°C° 0 mm 3 mps 723 mmHg 40%
    17:00 +24°C° 0 mm 3 mps 723 mmHg 46%
    18:00 +23°C° 0 mm 2 mps 723 mmHg 51%
    19:00 +21°C° 0 mm 2 mps 724 mmHg 55%
    20:00 +20°C° 0 mm 2 mps 724 mmHg 58%
    21:00 +20°C° 0 mm 1 mps 724 mmHg 62%
    22:00 +20°C° 0 mm 1 mps 724 mmHg 64%
    23:00 +19°C° 0 mm 1 mps 723 mmHg 65%

    29 October, Sunday

    Time Temperature Precipitation Wind Pressure Humidity
    00:00 +19°C° 0 mm 1 mps 723 mmHg 67%
    01:00 +19°C° 0 mm 1 mps 723 mmHg 67%
    02:00 +18°C° 0 mm 1 mps 723 mmHg 68%
    03:00 +18°C° 0 mm 1 mps 723 mmHg 68%
    04:00 +16°C° 0 mm 1 mps 723 mmHg 69%
    05:00 +15°C° 0 mm 0 mps 723 mmHg 70%
    06:00 +15°C° 0 mm 0 mps 723 mmHg 71%
    07:00 +17°C° 0 mm 0 mps 723 mmHg 63%
    08:00 +18°C° 0 mm 0 mps 723 mmHg 54%
    09:00 +20°C° 0 mm 0 mps 724 mmHg 46%
    10:00 +23°C° 0 mm 1 mps 724 mmHg 42%
    11:00 +24°C° 0 mm 1 mps 724 mmHg 37%
    12:00 +25°C° 0 mm 1 mps 723 mmHg 33%
    13:00 +25°C° 0 mm 2 mps 723 mmHg 33%
    14:00 +26°C° 0 mm 2 mps 723 mmHg 33%
    15:00 +26°C° 0 mm 3 mps 722 mmHg 33%
    16:00 +25°C° 0 mm 2 mps 722 mmHg 37%
    17:00 +24°C° 0 mm 2 mps 722 mmHg 42%
    18:00 +23°C° 0 mm 2 mps 722 mmHg 47%
    19:00 +21°C° 0 mm 2 mps 722 mmHg 51%
    20:00 +21°C° 0 mm 1 mps 723 mmHg 54%
    21:00 +21°C° 0 mm 1 mps 723 mmHg 58%
    22:00 +20°C° 0 mm 1 mps 722 mmHg 59%
    23:00 +18°C° 0 mm 0 mps 722 mmHg 60%
    Show more